CubeBel-2 (EU11S)
1 57175U 23091K   26188.72783919  .00009175  00000-0  32105-3 0  9997
2 57175  97.5038 252.1339 0010295  51.0625 309.1531 15.29697622167443
RS-38S
1 57189U 23091Z   26188.72916023  .00011667  00000-0  32739-3 0  9998
2 57189  97.5078 258.6341 0006395   9.2920 350.8441 15.36710160167843
SONATE-2
1 59112U 24043Q   26188.47896187  .00031562  00000-0  38565-3 0  9993
2 59112  97.5550 340.1459 0007012 130.6505 229.5363 15.60352887131052
GRBBeta
1 60237U 24128C   26188.46154758  .00002460  00000-0  17646-3 0  9999
2 60237  61.9890 145.1259 0037997 138.9442 221.4522 15.06772780109322
Curium One
1 60242U 24128H   26188.26605918  .00005567  00000-0  32300-3 0  9997
2 60242  61.9779 134.6448 0037492 134.9889 225.4256 15.12790414109495
ROBUSTA-3A
1 60243U 24128J   26188.37453157  .00004972  00000-0  29666-3 0  9996
2 60243  61.9856 136.8423 0038884 132.1641 228.2768 15.11910592109478
CatSat
1 60246U 24125J   26188.02629865  .00057805  00000-0  67036-3 0  9995
2 60246  97.2076  40.8185 0021312 111.3256 249.0280 15.61336346110482
HYPERVIEW-1G (RS66S)
1 61772U 24199AP  26188.66040522  .00189675  00000-0  88452-3 0  9994
2 61772  97.2825  69.5050 0007232 167.7044 192.4403 15.82778784137906
AO-123
1 61781U 24199AY  26188.75370323  .00005292  00000-0  15305-3 0  9998
2 61781  97.2977  57.2401 0012294 229.3502 130.6674 15.35979646137087
JINJUSat 1B
1 63210U 25052A   26188.69615715  .00011419  00000-0  34729-3 0  9995
2 63210  97.3974  85.4851 0004122  47.9777 312.1816 15.34185487 73248
NUSHSAT 1
1 63211U 25052B   26188.70582841  .00014473  00000-0  40396-3 0  9991
2 63211  97.3952  86.1336 0003983  55.0703 305.0915 15.36828913 73290
TEVEL2-4
1 63213U 25052D   26188.19567571  .00013726  00000-0  40159-3 0  9996
2 63213  97.3872  84.6269 0004183  68.1516 292.0172 15.35364717 73185
TEVEL2-5
1 63214U 25052E   26188.67475235  .00013404  00000-0  39439-3 0  9997
2 63214  97.3872  85.0494 0004186  68.0190 292.1498 15.35192497 73255
TEVEL2-6
1 63215U 25052F   26188.68754980  .00012675  00000-0  37352-3 0  9997
2 63215  97.3876  85.0469 0004074  70.8797 289.2887 15.35157027 73251
TEVEL2-1
1 63217U 25052H   26187.68057351  .00015226  00000-0  45647-3 0  9997
2 63217  97.3844  83.6383 0004748  76.8203 283.3570 15.34567986 73086
TEVEL2-3
1 63218U 25052J   26188.13090574  .00013975  00000-0  41826-3 0  9997
2 63218  97.3851  84.1135 0004506  77.8905 282.2843 15.34642806 73152
TEVEL2-2
1 63219U 25052K   26188.13720452  .00013555  00000-0  40642-3 0  9992
2 63219  97.3844  84.0980 0004751  77.1057 283.0716 15.34592056 73154
TEVEL2-9
1 63237U 25052AD  26187.68368611  .00013872  00000-0  44317-3 0  9991
2 63237  97.3912  82.9767 0008199  80.0094 280.2072 15.32543225 73015
TEVEL2-7
1 63238U 25052AE  26188.18557546  .00012392  00000-0  39993-3 0  9995
2 63238  97.3911  83.3851 0008266  78.8500 281.3671 15.32244294 73084
TEVEL2-8
1 63239U 25052AF  26188.19402064  .00012154  00000-0  39250-3 0  9993
2 63239  97.3910  83.3699 0008234  79.0652 281.1516 15.32229283 73087
SPIRONE
1 66657U 25274H   26188.75521461  .00002106  00000-0  20459-3 0  9998
2 66657  97.7472 117.7528 0010624 311.9586  48.0728 14.93635223 33299
K-HERO
1 66660U 25274L   26188.75410752  .00002005  00000-0  19300-3 0  9993
2 66660  97.7481 117.9281 0012606 315.7095  44.3115 14.94044934 33305
SNUGLITE-III DURI
1 66661U 25274M   26188.80836344  .00001694  00000-0  16377-3 0  9993
2 66661  97.7481 118.0025 0013375 315.9494  44.0659 14.94073840 33312
SAKHACUBE-CHOLBON
1 67290U 25313AU  26188.17228573  .00006809  00000-0  27337-3 0  9996
2 67290  97.3921 262.9612 0007600 285.2110  74.8287 15.25263864 29028
RS95S (QMR-KWT-2)
1 67291U 25313AV  26188.73100106  .00008742  00000-0  33392-3 0  9996
2 67291  97.3921 263.7336 0007213 278.5624  81.4797 15.26846011 29129
Ten-Koh2
1 68261U 25241B   26188.47490772  .00003047  00000-0  13728-3 0  9990
2 68261  51.6625 223.0648 0004735 204.1189 155.9569 15.24126456 18004
JACK-002
1 68417U 26067B   26188.77324919  .00004682  00000-0  22275-3 0  9995
2 68417  97.4573 147.1133 0002278 148.6676 211.4695 15.19653906 15076
DISCO 2
1 68431U 26067R   26188.79834228  .00005102  00000-0  24424-3 0  9998
2 68431  97.4609 147.1268 0000322  20.5271 339.5977 15.19397178 15079
HADES-SA (SpinnyONE)
1 68446U 26067AG  26188.30828312  .00013178  00000-0  61762-3 0  9996
2 68446  97.4411 146.3126 0007098  29.8369 330.3269 15.19796964 14985
PARUS-6U1
1 68456U 26067AS  26188.75999106  .00004226  00000-0  21265-3 0  9994
2 68456  97.4560 146.8105 0005592  15.0109 345.1290 15.17742822 15058
SAL-E
1 68458U 26067AU  26188.35615128  .00005810  00000-0  28836-3 0  9992
2 68458  97.4486 146.3373 0006228  25.1690 334.9847 15.18064798 14999
FSI-SAT 2
1 68792U 26088A   26188.40573106  .00002878  00000-0  19585-3 0  9993
2 68792  97.5096 337.1618 0015355  43.9483 316.2963 15.07005007 11332
OrigamiSat 2
1 68795U 26088D   26188.65272332  .00006467  00000-0  40954-3 0  9992
2 68795  97.5091 337.6029 0014743  13.3843 346.7774 15.09212617 11384
ARICA 2
1 68796U 26088E   26188.39286542  .00002268  00000-0  14871-3 0  9996
2 68796  97.5086 337.3221 0015780  15.2311 344.9390 15.08591918 11346
WASEDA-SAT-ZERO-II
1 68797U 26088F   26188.65054613  .00003326  00000-0  21453-3 0  9998
2 68797  97.5081 337.5898 0015437  13.3663 346.7972 15.08875289 11388
MANGARO-II-Piscus
1 68798U 26088G   26188.37436787  .00002862  00000-0  18465-3 0  9997
2 68798  97.5091 337.3542 0019183  16.3578 343.8266 15.08930243 11346
IO-86
1 40931U          25360.30710720  .00000000  00000-0  12800-3 0    00
2 40931   6.0006 332.5373 0012733 338.8432   8.1437 14.79075515    01
LILIUM-4                
1 71922C 26067AC  26089.50133053 -.00014632  00000+0 -74472-3 0    04
2 71922  97.4497  49.1617 0004341   5.9603 355.7042 15.16896692    16
